Location: Newark
(34.0111°N, 88.4892°W)
Time: 18:02:41
(UTC+00:00)

CAS-4B - Visible Passes

Search period start: 31 May 2020 00:00
Search period end: 10 June 2020 00:00
Orbit: 528 x 545 km, 43.0° (Epoch: 31 May)

Date Brightness Start Highest point End Pass type
(mag) Time Alt. Az. Time Alt. Az. Time Alt. Az.
31 May ? 01:56:41 10° W 02:00:23 31° NNW 02:04:07 10° NE visible
31 May ? 03:38:01 10° NW 03:41:21 23° N 03:43:18 17° NE visible
31 May ? 05:18:15 10° NW 05:18:37 12° NW 05:18:37 12° NW visible
01 Jun ? 01:46:37 10° WNW 01:50:12 28° NNW 01:53:50 10° NE visible
01 Jun ? 03:27:48 10° NW 03:31:12 24° N 03:33:14 17° NE visible
01 Jun ? 05:07:56 10° NW 05:08:33 14° NW 05:08:33 14° NW visible
02 Jun ? 01:36:33 10° WNW 01:40:02 26° N 01:43:34 10° NE visible
02 Jun ? 03:17:35 10° NW 03:21:03 25° N 03:23:07 17° NE visible
02 Jun ? 04:57:37 10° NW 04:58:26 15° NW 04:58:26 15° NW visible
03 Jun ? 01:26:28 10° WNW 01:29:53 24° N 01:33:19 10° NE visible
03 Jun ? 03:07:20 10° NW 03:10:53 27° N 03:13:00 18° NE visible
03 Jun ? 04:47:18 10° WNW 04:48:19 17° WNW 04:48:19 17° WNW visible
04 Jun ? 02:57:03 10° NW 03:00:43 29° NNE 03:02:52 19° ENE visible
04 Jun ? 04:37:02 10° WNW 04:38:12 18° WNW 04:38:12 18° WNW visible
05 Jun ? 02:46:45 10° NW 02:50:32 33° NNE 02:52:46 19° ENE visible
05 Jun ? 04:26:46 10° WNW 04:28:06 20° WNW 04:28:06 20° WNW visible
06 Jun ? 02:36:27 10° NW 02:40:19 38° NNE 02:42:41 20° ENE visible
06 Jun ? 04:16:33 10° WNW 04:18:01 20° WNW 04:18:01 20° WNW visible
07 Jun ? 02:26:07 10° NW 02:30:06 44° NNE 02:32:37 20° E visible
07 Jun ? 04:06:23 10° WNW 04:07:57 21° W 04:07:57 21° W visible
08 Jun ? 02:15:49 10° NW 02:19:52 54° NNE 02:22:36 19° E visible
08 Jun ? 03:56:17 10° W 03:57:56 20° W 03:57:56 20° W visible
09 Jun ? 02:05:30 10° WNW 02:09:37 67° NNE 02:12:37 18° ESE visible
09 Jun ? 03:46:17 10° W 03:47:57 18° WSW 03:47:57 18° WSW visible
